This is the latest recevied weather packets stored in our database for station/object VA2DG-13. If no packets are shown the sender has not sent any weather packets the latest 10 day(s).
| Time | Temp. | Humidity | Pressure | Rain* | Wind** | Luminosity | Snow |
|---|---|---|---|---|---|---|---|
| 1777575309 | 8.89° C | 76% | 1004.9 hPa | 0 mm | - | - | - |
| 1777573810 | 8.89° C | 77% | 1005 hPa | 0 mm | - | - | - |
| 1777570509 | 8.89° C | 79% | 1004.4 hPa | 0 mm | - | - | - |
| 1777569610 | 8.89° C | 80% | 1004.2 hPa | 0 mm | - | - | - |
| 1777568409 | 8.33° C | 82% | 1004.3 hPa | 0 mm | - | - | - |
| 1777566309 | 8.33° C | 83% | 1004.3 hPa | 0 mm | - | - | - |
| 1777563309 | 8.89° C | 85% | 1003.8 hPa | 0 mm | - | - | - |
| 1777562708 | 8.89° C | 86% | 1003.7 hPa | 0 mm | - | - | - |
| 1777561809 | 8.33° C | 87% | 1003.7 hPa | 0 mm | - | - | - |
| 1777560908 | 8.89° C | 87% | 1003.5 hPa | 0 mm | - | - | - |
| 1777556709 | 8.89° C | 88% | 1003.1 hPa | 0 mm | - | - | - |
| 1777554609 | 9.44° C | 88% | 1003 hPa | 0.25 mm | - | - | - |
| 1777553409 | 9.44° C | 87% | 1002.9 hPa | 0.51 mm | - | - | - |
| 1777550709 | 10.56° C | 86% | 1002.4 hPa | 0.51 mm | - | - | - |
| 1777546509 | 10.56° C | 86% | 1001.9 hPa | 0.51 mm | - | - | - |
| 1777545909 | 10.56° C | 86% | 1001.7 hPa | 0.51 mm | - | - | - |
| 1777542309 | 10.56° C | 87% | 1001.5 hPa | 1.52 mm | - | - | - |
| 1777539909 | 10.56° C | 87% | 1001.5 hPa | 1.52 mm | - | - | - |
| 1777538408 | 10.56° C | 86% | 1001.9 hPa | 1.02 mm | - | - | - |
| 1777538109 | 10.56° C | 86% | 1002 hPa | 1.27 mm | - | - | - |
| 1777537809 | 10.56° C | 86% | 1001.8 hPa | 1.02 mm | - | - | - |
| 1777537209 | 10.56° C | 85% | 1001.9 hPa | 1.52 mm | - | - | - |
| 1777536309 | 11.11° C | 85% | 1002.1 hPa | 1.52 mm | - | - | - |
| 1777535409 | 11.11° C | 85% | 1002.2 hPa | 1.27 mm | - | - | - |
| 1777534509 | 11.11° C | 85% | 1002.4 hPa | 1.52 mm | - | - | - |
* Rain latest hour (hover to see other rain measurements)
** Current wind speed in m/s (hover to see current wind gust speed)